Zurück zum Katalog

USA 279

AktivMilitärGEO
NORAD 42949·PAYLOAD·🇺🇸 United States

Gestartet Oct 15, 2017 von Cape Canaveral Space Force Station

Loading…

TLE

AktuellSource: Mike McCants

Epoche: Sep 14, 2026, 20:52 UTC

1 42949U 17066A   26257.86979159  .00000000  00000-0  00000-0 0    07
2 42949   3.4231  39.0186 0003867 107.2470 252.8141  1.00270000 18344

Verfolge USA 279 in Echtzeit mit AllMySat

Download on the App Store